Location: Huesca
(42.1318°N, 0.4078°W)
Time: 21:30:33
(UTC+02:00)

DIWATA 2B (PO-101) - Pass Details

Date: 26 April 2024
Orbit: 575 x 589 km, 98.1° (Epoch: 20 May)

Event Time Altitude Azimuth Distance (km) Brightness Sun altitude
Rises 03:54:52 0° 111° (ESE) 2,817 ? -28.2°
Reaches altitude 10° 03:59:04 10° 69° (ENE) 1,921 ? -27.8°
Maximum altitude 03:59:40 10° 61° (ENE) 1,904 ? -27.8°
Drops below altitude 10° 04:00:17 10° 52° (NE) 1,923 ? -27.7°
Sets 04:04:28 0° 11° (N) 2,828 ? -27.3°
